����������;��������(kWh)
2015-09-28 00:00;71,5
2015-09-28 00:15;72,45
2015-09-28 00:30;71,5
2015-09-28 00:45;72
2015-09-28 01:00;70,85
2015-09-28 01:15;73,05
2015-09-28 01:30;70,35
2015-09-28 01:45;71,85
2015-09-28 02:00;70
2015-09-28 02:15;69,7
2015-09-28 02:30;70,8
2015-09-28 02:45;70,25
2015-09-28 03:00;69,95
2015-09-28 03:15;69,45
2015-09-28 03:30;68,85
2015-09-28 03:45;70,7
2015-09-28 04:00;75
2015-09-28 04:15;80,65
2015-09-28 04:30;82
2015-09-28 04:45;81,45
2015-09-28 05:00;80,55
2015-09-28 05:15;80,05
2015-09-28 05:30;80,3
2015-09-28 05:45;82,5
2015-09-28 06:00;86,1
2015-09-28 06:15;84,2
2015-09-28 06:30;90,6
2015-09-28 06:45;87,85
2015-09-28 07:00;88,05
2015-09-28 07:15;91,2
2015-09-28 07:30;91,05
2015-09-28 07:45;123,35
2015-09-28 08:00;181
2015-09-28 08:15;179,8
2015-09-28 08:30;151,6
2015-09-28 08:45;144,75
2015-09-28 09:00;136,25
2015-09-28 09:15;147,8
2015-09-28 09:30;149,3
2015-09-28 09:45;145,65
2015-09-28 10:00;158,85
2015-09-28 10:15;163,6
2015-09-28 10:30;164,85
2015-09-28 10:45;163,6
2015-09-28 11:00;163,85
2015-09-28 11:15;165,4
2015-09-28 11:30;172,35
2015-09-28 11:45;184,6
2015-09-28 12:00;184,15
2015-09-28 12:15;183,1
2015-09-28 12:30;185,9
2015-09-28 12:45;195,7
2015-09-28 13:00;198,55
2015-09-28 13:15;203,75
2015-09-28 13:30;207,45
2015-09-28 13:45;260,65
2015-09-28 14:00;264,5
2015-09-28 14:15;228
2015-09-28 14:30;220,5
2015-09-28 14:45;205,15
2015-09-28 15:00;212,5
2015-09-28 15:15;207,25
2015-09-28 15:30;172,3
2015-09-28 15:45;154,8
2015-09-28 16:00;159,3
2015-09-28 16:15;155,45
2015-09-28 16:30;154,45
2015-09-28 16:45;145,9
2015-09-28 17:00;141,45
2015-09-28 17:15;139,15
2015-09-28 17:30;138,05
2015-09-28 17:45;141,05
2015-09-28 18:00;140,25
2015-09-28 18:15;157,75
2015-09-28 18:30;186,2
2015-09-28 18:45;148,9
2015-09-28 19:00;151,35
2015-09-28 19:15;127,8
2015-09-28 19:30;124,7
2015-09-28 19:45;127,15
2015-09-28 20:00;133,4
2015-09-28 20:15;126,5
2015-09-28 20:30;114
2015-09-28 20:45;108
2015-09-28 21:00;105,7
2015-09-28 21:15;101,9
2015-09-28 21:30;92,9
2015-09-28 21:45;94,15
2015-09-28 22:00;87,35
2015-09-28 22:15;82,25
2015-09-28 22:30;80,25
2015-09-28 22:45;78,25
2015-09-28 23:00;78,65
2015-09-28 23:15;81,85
2015-09-28 23:30;81,95
2015-09-28 23:45;81,9
2015-09-29 00:00;80
2015-09-29 00:15;75,4
2015-09-29 00:30;74,8
2015-09-29 00:45;75,6
2015-09-29 01:00;75,9
2015-09-29 01:15;75,2
2015-09-29 01:30;74,8
2015-09-29 01:45;74,05
2015-09-29 02:00;75,55
2015-09-29 02:15;74,5
2015-09-29 02:30;74,95
2015-09-29 02:45;75,5
2015-09-29 03:00;73,15
2015-09-29 03:15;73,1
2015-09-29 03:30;72,35
2015-09-29 03:45;74,35
2015-09-29 04:00;74,8
2015-09-29 04:15;74
2015-09-29 04:30;73,45
2015-09-29 04:45;73,15
2015-09-29 05:00;72,05
2015-09-29 05:15;71,75
2015-09-29 05:30;71,1
2015-09-29 05:45;72,7
2015-09-29 06:00;80,65
2015-09-29 06:15;77,85
2015-09-29 06:30;80
2015-09-29 06:45;82,95
2015-09-29 07:00;81,85
2015-09-29 07:15;82,85
2015-09-29 07:30;82,95
2015-09-29 07:45;118,3
2015-09-29 08:00;173,65
2015-09-29 08:15;155,6
2015-09-29 08:30;119,6
2015-09-29 08:45;145,15
2015-09-29 09:00;144,5
2015-09-29 09:15;139,55
2015-09-29 09:30;151,35
2015-09-29 09:45;153,55
2015-09-29 10:00;174,6
2015-09-29 10:15;177,95
2015-09-29 10:30;184,9
2015-09-29 10:45;182,8
2015-09-29 11:00;184
2015-09-29 11:15;198
2015-09-29 11:30;198,15
2015-09-29 11:45;194,2
2015-09-29 12:00;207,7
2015-09-29 12:15;213,55
2015-09-29 12:30;199,55
2015-09-29 12:45;211,55
2015-09-29 13:00;225,75
2015-09-29 13:15;222,7
2015-09-29 13:30;215,85
2015-09-29 13:45;218,9
2015-09-29 14:00;217,65
2015-09-29 14:15;206,55
2015-09-29 14:30;204,1
2015-09-29 14:45;209,75
2015-09-29 15:00;203
2015-09-29 15:15;209,45
2015-09-29 15:30;201,7
2015-09-29 15:45;193,6
2015-09-29 16:00;189
2015-09-29 16:15;173,45
2015-09-29 16:30;158,55
2015-09-29 16:45;156,25
2015-09-29 17:00;163,2
2015-09-29 17:15;146
2015-09-29 17:30;148,35
2015-09-29 17:45;145,1
2015-09-29 18:00;146,05
2015-09-29 18:15;142,45
2015-09-29 18:30;140,5
2015-09-29 18:45;138,8
2015-09-29 19:00;144,25
2015-09-29 19:15;135,2
2015-09-29 19:30;129,1
2015-09-29 19:45;126,45
2015-09-29 20:00;120,25
2015-09-29 20:15;113,65
2015-09-29 20:30;115,8
2015-09-29 20:45;102,4
2015-09-29 21:00;97,4
2015-09-29 21:15;98,55
2015-09-29 21:30;95,65
2015-09-29 21:45;93,05
2015-09-29 22:00;85
2015-09-29 22:15;82,55
2015-09-29 22:30;81,3
2015-09-29 22:45;81,3
2015-09-29 23:00;77,95
2015-09-29 23:15;78,6
2015-09-29 23:30;83,1
2015-09-29 23:45;84
2015-09-30 00:00;83,85
2015-09-30 00:15;77,7
2015-09-30 00:30;77,55
2015-09-30 00:45;74,35
2015-09-30 01:00;75,35
2015-09-30 01:15;75,1
2015-09-30 01:30;77,3
2015-09-30 01:45;75,05
2015-09-30 02:00;73,05
2015-09-30 02:15;72,15
2015-09-30 02:30;73,55
2015-09-30 02:45;73,25
2015-09-30 03:00;73,45
2015-09-30 03:15;73,8
2015-09-30 03:30;72,45
2015-09-30 03:45;72,55
2015-09-30 04:00;72,65
2015-09-30 04:15;73,4
2015-09-30 04:30;72,4
2015-09-30 04:45;72,7
2015-09-30 05:00;71,35
2015-09-30 05:15;71,6
2015-09-30 05:30;70,8
2015-09-30 05:45;74,45
2015-09-30 06:00;78,6
2015-09-30 06:15;77,95
2015-09-30 06:30;82,9
2015-09-30 06:45;80,65
2015-09-30 07:00;82,35
2015-09-30 07:15;82,05
2015-09-30 07:30;80,25
2015-09-30 07:45;114,6
2015-09-30 08:00;175,65
2015-09-30 08:15;159,65
2015-09-30 08:30;114,55
2015-09-30 08:45;126,5
2015-09-30 09:00;130,5
2015-09-30 09:15;160,5
2015-09-30 09:30;146,3
2015-09-30 09:45;147,4
2015-09-30 10:00;151,45
2015-09-30 10:15;154,8
2015-09-30 10:30;166,05
2015-09-30 10:45;168,6
2015-09-30 11:00;176,45
2015-09-30 11:15;186,9
2015-09-30 11:30;192,4
2015-09-30 11:45;174,55
2015-09-30 12:00;180,3
2015-09-30 12:15;188,45
2015-09-30 12:30;186,35
2015-09-30 12:45;189,55
2015-09-30 13:00;183,05
2015-09-30 13:15;179,2
2015-09-30 13:30;172
2015-09-30 13:45;179,9
2015-09-30 14:00;184,75
2015-09-30 14:15;177,3
2015-09-30 14:30;173,1
2015-09-30 14:45;177,85
2015-09-30 15:00;176,55
2015-09-30 15:15;174,05
2015-09-30 15:30;180,85
2015-09-30 15:45;173,2
2015-09-30 16:00;154,15
2015-09-30 16:15;154,5
2015-09-30 16:30;168,75
2015-09-30 16:45;161,35
2015-09-30 17:00;156,55
2015-09-30 17:15;146,6
2015-09-30 17:30;144,8
2015-09-30 17:45;138,5
2015-09-30 18:00;132,75
2015-09-30 18:15;129,8
2015-09-30 18:30;122,25
2015-09-30 18:45;121,9
2015-09-30 19:00;120,7
2015-09-30 19:15;114,9
2015-09-30 19:30;120,45
2015-09-30 19:45;123,15
2015-09-30 20:00;123,25
2015-09-30 20:15;117,9
2015-09-30 20:30;106,1
2015-09-30 20:45;96,15
2015-09-30 21:00;91,25
2015-09-30 21:15;93,7
2015-09-30 21:30;90,9
2015-09-30 21:45;89,45
2015-09-30 22:00;84,05
2015-09-30 22:15;82,3
2015-09-30 22:30;81,25
2015-09-30 22:45;80,5
2015-09-30 23:00;79,65
2015-09-30 23:15;74,65
2015-09-30 23:30;74,05
2015-09-30 23:45;73,1
2015-10-01 00:00;72,7
2015-10-01 00:15;72,85
2015-10-01 00:30;72,75
2015-10-01 00:45;72,1
2015-10-01 01:00;71,2
2015-10-01 01:15;70,8
2015-10-01 01:30;71,65
2015-10-01 01:45;70,15
2015-10-01 02:00;70,6
2015-10-01 02:15;70,85
2015-10-01 02:30;71,6
2015-10-01 02:45;69,85
2015-10-01 03:00;69
2015-10-01 03:15;70,7
2015-10-01 03:30;70,5
2015-10-01 03:45;70,5
2015-10-01 04:00;70,7
2015-10-01 04:15;68,85
2015-10-01 04:30;71,4
2015-10-01 04:45;71,4
2015-10-01 05:00;79,15
2015-10-01 05:15;79,25
2015-10-01 05:30;84,55
2015-10-01 05:45;78,8
2015-10-01 06:00;81,2
2015-10-01 06:15;79,8
2015-10-01 06:30;81,6
2015-10-01 06:45;79,8
2015-10-01 07:00;80
2015-10-01 07:15;79,4
2015-10-01 07:30;80,6
2015-10-01 07:45;108,65
2015-10-01 08:00;158,05
2015-10-01 08:15;142,5
2015-10-01 08:30;114,6
2015-10-01 08:45;125,7
2015-10-01 09:00;123,55
2015-10-01 09:15;138,95
2015-10-01 09:30;141,2
2015-10-01 09:45;158,3
2015-10-01 10:00;151,9
2015-10-01 10:15;154,9
2015-10-01 10:30;154,35
2015-10-01 10:45;150,95
2015-10-01 11:00;159,6
2015-10-01 11:15;162,55
2015-10-01 11:30;169,6
2015-10-01 11:45;180,4
2015-10-01 12:00;171,15
2015-10-01 12:15;172,3
2015-10-01 12:30;174,95
2015-10-01 12:45;167,25
2015-10-01 13:00;175,35
2015-10-01 13:15;178,15
2015-10-01 13:30;182,8
2015-10-01 13:45;180,15
2015-10-01 14:00;171,7
2015-10-01 14:15;189,15
2015-10-01 14:30;182,2
2015-10-01 14:45;126,4
2015-10-01 15:00;165,6
2015-10-01 15:15;147,85
2015-10-01 15:30;153,4
2015-10-01 15:45;140,85
2015-10-01 16:00;138
2015-10-01 16:15;97,95
2015-10-01 16:30;131,05
2015-10-01 16:45;128
2015-10-01 17:00;116,3
2015-10-01 17:15;115,35
2015-10-01 17:30;108,6
2015-10-01 17:45;105,3
2015-10-01 18:00;110,95
2015-10-01 18:15;110
2015-10-01 18:30;109
2015-10-01 18:45;111,55
2015-10-01 19:00;109,6
2015-10-01 19:15;106,1
2015-10-01 19:30;108,35
2015-10-01 19:45;104,2
2015-10-01 20:00;102,55
2015-10-01 20:15;97,65
2015-10-01 20:30;106,3
2015-10-01 20:45;97,1
2015-10-01 21:00;96,2
2015-10-01 21:15;89,2
2015-10-01 21:30;87,75
2015-10-01 21:45;86,35
2015-10-01 22:00;82,45
2015-10-01 22:15;75,95
2015-10-01 22:30;75,25
2015-10-01 22:45;73,45
2015-10-01 23:00;73,9
2015-10-01 23:15;71,7
2015-10-01 23:30;70,3
2015-10-01 23:45;69,95
2015-10-02 00:00;70,6
2015-10-02 00:15;70,15
2015-10-02 00:30;69,15
2015-10-02 00:45;68,9
2015-10-02 01:00;67,6
2015-10-02 01:15;67,9
2015-10-02 01:30;67,3
2015-10-02 01:45;66,35
2015-10-02 02:00;65,9
2015-10-02 02:15;66,75
2015-10-02 02:30;65,45
2015-10-02 02:45;65,75
2015-10-02 03:00;66,15
2015-10-02 03:15;71,3
2015-10-02 03:30;73,4
2015-10-02 03:45;72
2015-10-02 04:00;68,85
2015-10-02 04:15;66
2015-10-02 04:30;65,2
2015-10-02 04:45;64,5
2015-10-02 05:00;69,8
2015-10-02 05:15;68,8
2015-10-02 05:30;71,55
2015-10-02 05:45;74,9
2015-10-02 06:00;75,65
2015-10-02 06:15;74,8
2015-10-02 06:30;74,7
2015-10-02 06:45;75,65
2015-10-02 07:00;74,05
2015-10-02 07:15;75,55
2015-10-02 07:30;72,2
2015-10-02 07:45;103,2
2015-10-02 08:00;151
2015-10-02 08:15;137,3
2015-10-02 08:30;101,6
2015-10-02 08:45;104,8
2015-10-02 09:00;98,65
2015-10-02 09:15;113,1
2015-10-02 09:30;115,4
2015-10-02 09:45;115,3
2015-10-02 10:00;124,8
2015-10-02 10:15;130,4
2015-10-02 10:30;130,9
2015-10-02 10:45;127,95
2015-10-02 11:00;141,35
2015-10-02 11:15;154,25
2015-10-02 11:30;143
2015-10-02 11:45;156,3
2015-10-02 12:00;156,85
2015-10-02 12:15;148,7
2015-10-02 12:30;160,9
2015-10-02 12:45;165,65
2015-10-02 13:00;151,7
2015-10-02 13:15;154,45
2015-10-02 13:30;154,95
2015-10-02 13:45;149,6
2015-10-02 14:00;160,6
2015-10-02 14:15;146,85
2015-10-02 14:30;161,6
2015-10-02 14:45;149,45
2015-10-02 15:00;152,9
2015-10-02 15:15;140,65
2015-10-02 15:30;148,25
2015-10-02 15:45;134,6
2015-10-02 16:00;137,6
2015-10-02 16:15;128,15
2015-10-02 16:30;138,35
2015-10-02 16:45;119,55
2015-10-02 17:00;122,6
2015-10-02 17:15;112,35
2015-10-02 17:30;111
2015-10-02 17:45;109,3
2015-10-02 18:00;109,3
2015-10-02 18:15;111,65
2015-10-02 18:30;103,65
2015-10-02 18:45;105,75
2015-10-02 19:00;111,15
2015-10-02 19:15;109,6
2015-10-02 19:30;110,1
2015-10-02 19:45;101,8
2015-10-02 20:00;97,7
2015-10-02 20:15;98,4
2015-10-02 20:30;92,2
2015-10-02 20:45;87,8
2015-10-02 21:00;82,7
2015-10-02 21:15;85,9
2015-10-02 21:30;86,45
2015-10-02 21:45;84,7
2015-10-02 22:00;77,7
2015-10-02 22:15;75,55
2015-10-02 22:30;75
2015-10-02 22:45;71,9
2015-10-02 23:00;70,8
2015-10-02 23:15;69,3
2015-10-02 23:30;68,85
2015-10-02 23:45;69,45
2015-10-03 00:00;69,05
2015-10-03 00:15;67,5
2015-10-03 00:30;65,2
2015-10-03 00:45;68,65
2015-10-03 01:00;73,3
2015-10-03 01:15;73,05
2015-10-03 01:30;72,4
2015-10-03 01:45;70,05
2015-10-03 02:00;66,15
2015-10-03 02:15;64,9
2015-10-03 02:30;65,25
2015-10-03 02:45;65,45
2015-10-03 03:00;66
2015-10-03 03:15;64,65
2015-10-03 03:30;65,5
2015-10-03 03:45;66,4
2015-10-03 04:00;64,95
2015-10-03 04:15;65,05
2015-10-03 04:30;65,25
2015-10-03 04:45;65,7
2015-10-03 05:00;64,25
2015-10-03 05:15;64,4
2015-10-03 05:30;64,6
2015-10-03 05:45;64,25
2015-10-03 06:00;68,7
2015-10-03 06:15;67,55
2015-10-03 06:30;67,65
2015-10-03 06:45;66,55
2015-10-03 07:00;63,9
2015-10-03 07:15;64,5
2015-10-03 07:30;64
2015-10-03 07:45;66,5
2015-10-03 08:00;64,7
2015-10-03 08:15;65,4
2015-10-03 08:30;61,4
2015-10-03 08:45;65,65
2015-10-03 09:00;66,45
2015-10-03 09:15;64,4
2015-10-03 09:30;64,95
2015-10-03 09:45;95,8
2015-10-03 10:00;100,2
2015-10-03 10:15;86,3
2015-10-03 10:30;70,55
2015-10-03 10:45;75,5
2015-10-03 11:00;76,75
2015-10-03 11:15;77,8
2015-10-03 11:30;71,25
2015-10-03 11:45;71,2
2015-10-03 12:00;72,45
2015-10-03 12:15;71,15
2015-10-03 12:30;82,75
2015-10-03 12:45;67,35
2015-10-03 13:00;77,55
2015-10-03 13:15;67,45
2015-10-03 13:30;78,7
2015-10-03 13:45;73,65
2015-10-03 14:00;74,15
2015-10-03 14:15;77,65
2015-10-03 14:30;77,2
2015-10-03 14:45;73,2
2015-10-03 15:00;73,8
2015-10-03 15:15;70,25
2015-10-03 15:30;69,9
2015-10-03 15:45;67,1
2015-10-03 16:00;68,25
2015-10-03 16:15;68,45
2015-10-03 16:30;65
2015-10-03 16:45;72,55
2015-10-03 17:00;69,3
2015-10-03 17:15;68,45
2015-10-03 17:30;66,2
2015-10-03 17:45;69,15
2015-10-03 18:00;69,1
2015-10-03 18:15;70,15
2015-10-03 18:30;67,7
2015-10-03 18:45;70,5
2015-10-03 19:00;69,4
2015-10-03 19:15;70,45
2015-10-03 19:30;76,9
2015-10-03 19:45;75,95
2015-10-03 20:00;75,15
2015-10-03 20:15;73,85
2015-10-03 20:30;79,7
2015-10-03 20:45;78,4
2015-10-03 21:00;86,75
2015-10-03 21:15;85,5
2015-10-03 21:30;84,4
2015-10-03 21:45;81,45
2015-10-03 22:00;74
2015-10-03 22:15;70,95
2015-10-03 22:30;71,5
2015-10-03 22:45;69,3
2015-10-03 23:00;68,25
2015-10-03 23:15;69,45
2015-10-03 23:30;70,5
2015-10-03 23:45;69,25
2015-10-04 00:00;68,3
2015-10-04 00:15;67,3
2015-10-04 00:30;67,05
2015-10-04 00:45;66,65
2015-10-04 01:00;66,8
2015-10-04 01:15;66
2015-10-04 01:30;68,95
2015-10-04 01:45;65,4
2015-10-04 02:00;66,2
2015-10-04 02:15;66,4
2015-10-04 02:30;66,85
2015-10-04 02:45;64,5
2015-10-04 03:00;65,6
2015-10-04 03:15;65,5
2015-10-04 03:30;66,3
2015-10-04 03:45;65,1
2015-10-04 04:00;66,05
2015-10-04 04:15;65,6
2015-10-04 04:30;66,5
2015-10-04 04:45;65,35
2015-10-04 05:00;64,95
2015-10-04 05:15;65,95
2015-10-04 05:30;65,85
2015-10-04 05:45;63,95
2015-10-04 06:00;65,85
2015-10-04 06:15;66,85
2015-10-04 06:30;69,75
2015-10-04 06:45;73,2
2015-10-04 07:00;72,7
2015-10-04 07:15;71,4
2015-10-04 07:30;70,65
2015-10-04 07:45;75,05
2015-10-04 08:00;71,5
2015-10-04 08:15;69,3
2015-10-04 08:30;69,25
2015-10-04 08:45;67,6
2015-10-04 09:00;66,9
2015-10-04 09:15;66,5
2015-10-04 09:30;64
2015-10-04 09:45;66,75
2015-10-04 10:00;70,75
2015-10-04 10:15;72,2
2015-10-04 10:30;73,75
2015-10-04 10:45;71,3
2015-10-04 11:00;69,1
2015-10-04 11:15;66,75
2015-10-04 11:30;66,5
2015-10-04 11:45;71,6
2015-10-04 12:00;75,5
2015-10-04 12:15;71,85
2015-10-04 12:30;71,5
2015-10-04 12:45;71,15
2015-10-04 13:00;54,95
2015-10-04 13:15;77,3
2015-10-04 13:30;75
2015-10-04 13:45;69,95
2015-10-04 14:00;73
2015-10-04 14:15;70,2
2015-10-04 14:30;72
2015-10-04 14:45;75,35
2015-10-04 15:00;69,2
2015-10-04 15:15;73,35
2015-10-04 15:30;71,45
2015-10-04 15:45;71,45
2015-10-04 16:00;70,9
2015-10-04 16:15;67,4
2015-10-04 16:30;68,6
2015-10-04 16:45;71,9
2015-10-04 17:00;70,5
2015-10-04 17:15;69,4
2015-10-04 17:30;71,65
2015-10-04 17:45;69,6
2015-10-04 18:00;72,05
2015-10-04 18:15;69,7
2015-10-04 18:30;70,8
2015-10-04 18:45;72,5
2015-10-04 19:00;68,35
2015-10-04 19:15;70,25
2015-10-04 19:30;76,95
2015-10-04 19:45;76,85
2015-10-04 20:00;85,6
2015-10-04 20:15;85,6
2015-10-04 20:30;86,6
2015-10-04 20:45;83,5
2015-10-04 21:00;78,1
2015-10-04 21:15;78,05
2015-10-04 21:30;76,05
2015-10-04 21:45;74,05
2015-10-04 22:00;71,75
2015-10-04 22:15;71,1
2015-10-04 22:30;69,6
2015-10-04 22:45;67,6
2015-10-04 23:00;68,2
2015-10-04 23:15;70,75
2015-10-04 23:30;68,55
2015-10-04 23:45;67

